FENGYUN 1C DEB, 29779

Orbit data source: Space-Track

FENGYUN 1C DEB, 29779 is space debris in SSO originally from a launch on Mon, 10 May 1999 UTC launched from the Taiyaun Space Center, China (TSC). Fengyun 1C debris stems from the Chinese weather satellite Fengyun-1C, which was intentionally destroyed by a Chinese anti-satellite missile in 2007. This event dramatically increased the amount of space debris, with thousands of trackable fragments posing hazards to satellites and human spaceflight. The Fengyun 1C debris cloud has become a focal point in discussions about space sustainability and the need for international regulations to prevent the creation of new debris.

Loading next visibility...
Identifier
29779, 1999-025BV
Orbit
SSO
Country
Flag of CNCN / PRC
Related business
Manufacturer
Unknown
Mission
Spacecraft
Bus & Motor
Unknown
Mass
Unknown
Launch date (UTC)
1999-05-10 (27 years ago)
Launch vehicle
Unknown
Launch site
Taiyaun Space Center, China (TSC)
Object type
Payload
Rocket body
Debris
Shape & HBR
Unknown shape, 0.1 m
Radar Cross Section
Medium (>0.1 m² and <1 m²)

Expand to show TLE details & history
Last TLE update: 15 hours ago

TLE from 15 hours ago
0 FENGYUN 1C DEB
1 29779U 99025BV  26164.57536156  .00000317  00000-0  18729-3 0  9997
2 29779  98.6704 175.3441 0063143   4.7133 355.4621 14.13618319999954
Epoch: 2026-06-13T13:48Z
TLE epoch observation values (Epoch: 2026-06-13T13:48:31.238Z)
Latitude
-0.00009°
Longitude
66.32547°
Altitude
804.437 km
Speed
7.475 km/s
True Right ascension
11h 41m 22s
True Declination
0° 00' 00"
Sunlit
Object was in daylight at epoch
Visualization orbit readout
Latitude
Unknown
Longitude
Unknown
Altitude
Unknown
Speed
Unknown
Apparent Right ascension
Unknown
Apparent Declination
Unknown
Sunlit
N/A
Visualization observer readout
Local Sidereal Time
15:36:26
Azimuth
Unknown
Elevation
Unknown
Doppler factor
Unknown
Orbital elements
Apogee altitude
889.785 km
Perigee altitude
798.577 km
Semi-major axis
7,222.318 km
Eccentricity
0.00631
Inclination
98.6704°
RAAN
175.3441°
Arg. of periapsis
4.7133°
True anomaly
355.4044°
Mean anomaly
355.4621°
Eccentric anomaly
355.43329°
Mean motion
3.53613 °/min
Orbital period
101.81 mins
BSTAR
0.00018729
Loading maneuver chart data...
Computing Atmospheric mass density...

Documentation

Showing up to 5 results
|